Regional Weather Roundup
Issued by NWS Albany, NY

Home | Current Version | Previous Version | Text Only | Print | Product List | Glossary On
Versions: 1 2 3 4 5 6 7 8 9 10 11 12 13 14 15 16 17 18 19 20 21 22 23 24 25 26 27
000
ASUS41 KALY 272310
RWRALY

NEW YORK STATE HOURLY WEATHER ROUNDUP
NATIONAL WEATHER SERVICE ALBANY NY
700 PM EDT SAT MAY 27 2017

NOTE: "FAIR" INDICATES FEW OR NO CLOUDS BELOW 12,000 FEET WITH NO
SIGNIFICANT WEATHER AND/OR NO OBSTRUCTIONS TO VISIBILITY.

NYZ032-033-038>043-046>054-057>066-NYZ062>081-082-084-280000-
EAST


CITY           SKY/WX    TMP DP  RH WIND       PRES   REMARKS
ALBANY         PTSUNNY   70  49  47 CALM      29.87R
GLENS FALLS    NOT AVBL
POUGHKEEPSIE   CLOUDY    69  55  60 W3        29.87R
NEWBURGH       CLOUDY    66  59  77 VRB6      29.90R
MONTGOMERY     CLOUDY    68  57  68 E3        29.88R
WHITE PLAINS   CLOUDY    65  55  70 E8        29.89R
ISLIP          CLOUDY    62  53  72 SE9       29.91R
NEW YORK CITY  CLOUDY    69  56  62 SE6       29.87R
CENTRAL PARK   CLOUDY    70  57  63 VRB3      29.90R
$$

NYZ005>009-017-018-044>046-055-056-280000-
CENTRAL


CITY           SKY/WX    TMP DP  RH WIND       PRES   REMARKS
FULTON         SUNNY     66  55  67 NW6       29.90R
SYRACUSE       PTSUNNY   63  55  75 W7        29.89R
ROME           CLOUDY    65  56  72 W7        29.89R
ELMIRA         CLOUDY    67  53  61 NE6       29.89R
BINGHAMTON     CLOUDY    62  52  69 N6        29.91R
MONTICELLO     CLOUDY    63  54  72 NW3       29.92R
$$

NYZ026>034-041>043-087-280000-
NORTH


CITY           SKY/WX    TMP DP  RH WIND       PRES   REMARKS
WATERTOWN      SUNNY     64  50  60 SW8       29.89R HAZE
FORT DRUM      NOT AVBL
OGDENSBURG     FAIR      73  49  42 SW3       29.86S
MASSENA        SUNNY     72  48  42 W3        29.86R
SARANAC LAKE   CLOUDY    61  50  67 W3        29.89S
PLATTSBURGH    MOSUNNY   67  47  48 S7        29.86S
$$

NYZ001>004-010>016-019>021-085-280000-
WEST


CITY           SKY/WX    TMP DP  RH WIND       PRES   REMARKS
NIAGARA FALLS  MOSUNNY   69  52  54 N6        29.91R
BUFFALO        PTSUNNY   68  52  56 N5        29.91R
DUNKIRK        SUNNY     64  51  62 N7        29.93R
JAMESTOWN      MOSUNNY   64  48  55 NW12      29.93R
WELLSVILLE     PTSUNNY   66  51  58 N6        29.93R
ROCHESTER      PTSUNNY   67  55  65 CALM      29.92R
PENN YAN       CLOUDY    65  51  60 VRB5      29.92R
$$

             KEY
       WCI = WIND CHILL INDEX
       VSB = VISIBILITY
       HX  = HEAT INDEX
$$




USA.gov is the U.S. government's official web portal to all federal, state and local government web resources and services.